Вернуться в каталог

STARLINK-32239

АктивенСвязьVLEO
NORAD 61892·PAYLOAD·🇺🇸 United States

Запущен Nov 9, 2024 с Vandenberg Space Force Base

Loading…

Ближайшие Пролёты (ближайшие 24 часа)

TLE

СвежийSource: CelesTrak SupGP

Эпоха: Sep 14, 2026, 20:54 UTC

1 61892C 24204U   26257.87131944 -.00019436  00000+0 -57467-3 0  2570
2 61892  53.1585 325.7255 0001237  87.8692 112.0733 15.34377759    16

Отслеживайте STARLINK-32239 в реальном времени с AllMySat

Download on the App Store